디시인사이드 갤러리

리듬게임 갤러리

갤러리 이슈박스, 최근방문 갤러리

갤러리 본문 영역

리갤에 쓰려는글 스갤에 써버림.앱에서 작성

/˚)─갤로그로 이동합니다. 2020.07.03 20:27:16
조회 81 추천 0 댓글 5
							

viewimage.php?id=3fb5c932eddf3fa763ba&no=24b0d769e1d32ca73ded8ffa11d028313550f9fb3f9dac8b24082c81cb595a440dc36ddc8dce7b650cd120063f6961d7a19881270ee66ea836ebdf4f7d5bc8f046be76cb2a7b0cf494f562d49e668c514add611b5db1cdf6e770cacd1581d54507bb77ae55fc8b04


치매 온듯.

추천 비추천

0

고정닉 0

0

댓글 영역

전체 리플 0
등록순정렬 기준선택

하단 갤러리 리스트 영역

왼쪽 컨텐츠 영역

갤러리 리스트 영역

갤러리 리스트
번호 제목 글쓴이 작성일 조회 추천
설문 '나 5cm만 주라' 키 커서 부러운 여자 아이돌은? 운영자 20/08/04 - -
공지 리듬게임에 관련된 사진과 내용을 올려주시기 바랍니다. [745] 운영자 06.08.29 10673555 207
11142437 기분좋은짤 게메즈낙갤로그로 이동합니다. 19:21 3 0
11142436 줘팸어캐참음 feelsogood(112.166) 19:20 4 0
11142435 크기가 자주포면 보고했어야지! [1] 사당동개갤로그로 이동합니다. 19:19 15 0
11142434 리갤러여러분들의 열혈과같은 성화로 맘스터치 한성대입구역점에 왔습니다 [2] ㅇㅇ(175.223) 19:18 16 0
11142433 버닝히트 지리네 MKP-04갤로그로 이동합니다. 19:17 11 0
11142432 쪽본이 우리나라한테 맨날 쳐발리는 이유 ㅇㅇ(212.102) 19:13 18 0
11142431 퇴근했는데 오락장을 갈가요 말가요 이층갤로그로 이동합니다. 19:13 9 0
11142430 정배 계속 할수있는 사람 너무 부럽고 5123874갤로그로 이동합니다. 19:12 9 0
11142429 A1오지마 LH갤로그로 이동합니다. 19:12 13 0
11142428 필리핀 슈랜쟁이한테 개발림 질문안받음 [3] jeonsee갤로그로 이동합니다. 19:08 44 0
11142427 정상적인 능지면 븜스함 CU갤로그로 이동합니다. 19:08 13 0
11142426 따스 시발 창렬겜 ㅇㅇ(112.155) 19:05 20 0
11142425 따스 엄청 신경쓰는거 보니까 ㄹㅇ 허머가 프로듀싱하나 ㅇㅇ(223.38) 18:59 24 0
11142424 레벨운 하드클ㅋㅋㅋㅋㅋ ㅇㅇ(223.33) 18:57 17 0
11142423 속옷 ㅇㅇ(223.39) 18:57 27 0
11142422 오늘 피자 먹음 츠다냥갤로그로 이동합니다. 18:55 16 0
11142421 이 녀석들 다 슈랜을 고르잖아????? [2] ㅋㅌㅅ.갤로그로 이동합니다. 18:55 52 0
11142420 [1] ㅇㅇ(223.39) 18:53 32 0
11142419 스크곡하려면 어깨운동부터해야겠네 시발 [4] 5123874갤로그로 이동합니다. 18:53 24 0
11142418 아레나안해시발 ㅋㅋ [6] jeonsee갤로그로 이동합니다. 18:52 40 0
11142417 겜하고있는데 트라노이드레겐 기갱소식나오네 ㅇㅇ(211.36) 18:51 21 0
11142416 12렙 풀콤 하루에 3개 조져버리기 김팽송갤로그로 이동합니다. 18:50 11 0
11142415 흑카마 하드클 [7] 찐누갤로그로 이동합니다. 18:50 43 6
11142414 비트하러갈까요??????????? [2] 꼰마갤로그로 이동합니다. 18:50 19 0
11142413 멘데스 FlipFlap갤로그로 이동합니다. 18:49 12 0
11142412 헬스장2 이제야 끝.... [1] 대연동불빠따갤로그로 이동합니다. 18:48 21 0
11142411 천년의리레겐 랜덤걸면 개병신똥배치밖에 안뜨는거같은데 RaFan갤로그로 이동합니다. 18:47 12 0
11142410 따스 업뎃 공지 [2] kinetic갤로그로 이동합니다. 18:46 56 0
11142409 시발 야간진료날인줄 알았는데 야간진료는 어제였구요 死死五入갤로그로 이동합니다. 18:44 12 0
11142408 요시 조퇴 성굥 집 가서 비트 뚜돌길까요 신서진갤로그로 이동합니다. 18:43 11 0
11142407 사볼뉴비볼사람 비트하면짐승갤로그로 이동합니다. 18:43 13 0
11142406 이거 생각보다 할만한데 [6] FlipFlap갤로그로 이동합니다. 18:39 34 0
11142405 그래도 리갤엔 테에엥 거리는 애들 없어서 좋은듯 [4] 하욯갤로그로 이동합니다. 18:39 44 0
11142404 천공풀콤ㅋㅋㅋㅋㅋㅋㅋㅋㅋㅋㄱ어 [4] 리츠코의새우갤로그로 이동합니다. 18:33 57 0
11142403 대통령 아들 기갱 [4] 게메즈낙갤로그로 이동합니다. 18:32 36 0
11142402 백만년만에투덱함 [1] feelsogood(39.7) 18:31 19 0
11142401 돌체보다 겜잘하시는분 [1] Zzz...갤로그로 이동합니다. 18:30 31 0
11142400 오늘 2시간 자고 나와서 성과가 아예 안나오네 대연동불빠따갤로그로 이동합니다. 18:30 11 0
11142399 프다포디는 븜스인생 처음으로 플레이해봄 [4] ㅁㅁ갤로그로 이동합니다. 18:28 46 0
11142398 리나시타 연타에서 게이지 남겼다 [2] 게메즈낙갤로그로 이동합니다. 18:25 23 0
11142397 오늘리듬잘한것들 말걸리기장인갤로그로 이동합니다. 18:25 10 0
11142396 11렙 미플레이 이제 여섯개남음... 일부는시즈모드됐고일부는통통통통갤로그로 이동합니다. 18:18 13 0
11142395 이지투 방송컴터 에피소드 [2] 별.갤로그로 이동합니다. 18:17 65 0
11142394 한슨머 의외의 사실 : 한성대엔 맥도날드가 있다! [4] ㅇㅇ(220.127) 18:17 56 0
11142393 븜 5일 안했다고 정신을 못차리겠네 팥2(221.157) 18:16 17 0
11142392 작열 2 하드클 ㅋㅋㅋㅋㅋㅋㅋㅋㅋㅋㅋㅋㅋㅋㅋㅋㅋ [47] 츠다냥갤로그로 이동합니다. 18:16 145 13
11142391 월컴래갠하드클 feelsogood(39.7) 18:15 11 0
11142390 까마이타치 래겐 하드 ㅠㅠ [11] jeonsee갤로그로 이동합니다. 18:14 60 9
11142389 이카흑 진짜 악질이네 갓재삼(59.20) 18:14 20 0
갤러리 내부 검색
전체게시물 정렬 옵션

오른쪽 컨텐츠 영역

힛(HIT)NEW

그때 그 힛

1/3